Time,TemperatureF,DewpointF,PressureIn,WindDirection,WindDirectionDegrees,WindSpeedMPH,WindSpeedGustMPH,Humidity,HourlyPrecipIn,Conditions,Clouds,dailyrainin,SolarRadiationWatts/m^2,SoftwareType,DateUTC
2013-04-16 00:00:00,74.6,62.5,29.43,SE,136,8.0,15.0,66,0.00,,---,0.00,0.00,VWS V14.00,2013-04-16 05:00:00,
2013-04-16 00:05:00,74.5,62.8,29.43,SSE,152,8.0,17.0,67,0.00,,---,0.00,0.00,VWS V14.00,2013-04-16 05:05:00,
2013-04-16 00:10:00,74.3,63.1,29.43,SSE,153,5.0,17.0,68,0.00,,---,0.00,0.00,VWS V14.00,2013-04-16 05:10:00,
2013-04-16 00:15:00,74.2,63.0,29.43,SE,140,7.0,20.0,68,0.00,,---,0.00,0.00,VWS V14.00,2013-04-16 05:15:00,
2013-04-16 00:20:00,74.0,63.2,29.43,SSE,148,11.0,20.0,69,0.00,,---,0.00,0.00,VWS V14.00,2013-04-16 05:20:00,
2013-04-16 00:25:00,73.8,63.0,29.43,SE,141,8.0,18.0,69,0.00,,---,0.00,0.00,VWS V14.00,2013-04-16 05:25:00,
2013-04-16 00:30:00,73.6,63.2,29.43,SE,136,5.0,18.0,70,0.00,,---,0.00,0.00,VWS V14.00,2013-04-16 05:30:00,
2013-04-16 00:35:00,73.4,63.4,29.43,SE,133,7.0,17.0,71,0.00,,---,0.00,0.00,VWS V14.00,2013-04-16 05:35:00,
2013-04-16 00:40:00,73.1,63.5,29.43,ESE,110,8.0,17.0,72,0.00,,---,0.00,0.00,VWS V14.00,2013-04-16 05:40:00,
2013-04-16 00:45:00,72.9,63.3,29.44,ESE,115,13.0,13.0,72,0.00,,---,0.00,0.00,VWS V14.00,2013-04-16 05:45:00,
2013-04-16 00:50:00,72.7,63.5,29.44,SE,140,5.0,13.0,73,0.00,,---,0.00,0.00,VWS V14.00,2013-04-16 05:50:00,
2013-04-16 00:55:00,72.5,63.4,29.43,SE,128,5.0,13.0,73,0.00,,---,0.00,0.00,VWS V14.00,2013-04-16 05:55:00,
2013-04-16 01:00:00,72.2,63.5,29.43,SE,134,7.0,13.0,74,0.00,,---,0.00,0.00,VWS V14.00,2013-04-16 06:00:00,
2013-04-16 01:05:00,72.0,63.3,29.44,SE,131,7.0,11.0,74,0.00,,---,0.00,0.00,VWS V14.00,2013-04-16 06:05:00,
2013-04-16 01:10:00,71.7,63.4,29.44,ESE,119,4.0,12.0,75,0.00,,---,0.00,0.00,VWS V14.00,2013-04-16 06:10:00,
2013-04-16 01:15:00,71.5,63.5,29.44,East,97,5.0,9.0,76,0.00,,---,0.00,0.00,VWS V14.00,2013-04-16 06:15:00,
2013-04-16 01:20:00,71.4,63.5,29.44,ESE,104,11.0,13.0,76,0.00,,---,0.00,0.00,VWS V14.00,2013-04-16 06:20:00,
2013-04-16 01:25:00,71.2,63.6,29.44,ESE,107,6.0,7.0,77,0.00,,---,0.00,0.00,VWS V14.00,2013-04-16 06:25:00,
2013-04-16 01:30:00,71.0,63.4,29.44,ESE,107,7.0,7.0,77,0.00,,---,0.00,0.00,VWS V14.00,2013-04-16 06:30:00,
2013-04-16 01:35:00,70.8,63.2,29.45,ESE,107,7.0,7.0,77,0.00,,---,0.00,0.00,VWS V14.00,2013-04-16 06:35:00,
2013-04-16 01:40:00,70.6,63.4,29.45,ESE,116,5.0,11.0,78,0.00,,---,0.00,0.00,VWS V14.00,2013-04-16 06:40:00,
2013-04-16 01:45:00,70.4,63.2,29.45,ESE,116,2.0,8.0,78,0.00,,---,0.00,0.00,VWS V14.00,2013-04-16 06:45:00,
2013-04-16 01:50:00,70.1,63.3,29.45,ESE,113,6.0,9.0,79,0.00,,---,0.00,0.00,VWS V14.00,2013-04-16 06:50:00,
2013-04-16 01:55:00,69.9,63.1,29.45,ESE,113,8.0,8.0,79,0.00,,---,0.00,0.00,VWS V14.00,2013-04-16 06:55:00,
2013-04-16 02:00:00,69.8,63.4,29.44,ESE,113,4.0,13.0,80,0.00,,---,0.00,0.00,VWS V14.00,2013-04-16 07:00:00,
2013-04-16 02:05:00,69.7,63.3,29.44,ESE,113,6.0,8.0,80,0.00,,---,0.00,0.00,VWS V14.00,2013-04-16 07:05:00,
2013-04-16 02:10:00,69.5,63.1,29.44,ESE,115,6.0,12.0,80,0.00,,---,0.00,0.00,VWS V14.00,2013-04-16 07:10:00,
2013-04-16 02:15:00,69.3,62.9,29.44,ESE,113,4.0,8.0,80,0.00,,---,0.00,0.00,VWS V14.00,2013-04-16 07:15:00,
2013-04-16 02:20:00,69.2,63.1,29.45,ESE,119,8.0,13.0,81,0.00,,---,0.00,0.00,VWS V14.00,2013-04-16 07:20:00,
2013-04-16 02:25:00,69.0,63.3,29.44,SE,125,7.0,13.0,82,0.00,,---,0.00,0.00,VWS V14.00,2013-04-16 07:25:00,
2013-04-16 02:30:00,68.9,63.2,29.44,SE,136,7.0,20.0,82,0.00,,---,0.00,0.00,VWS V14.00,2013-04-16 07:30:00,
2013-04-16 02:35:00,68.8,63.1,29.44,SE,139,6.0,12.0,82,0.00,,---,0.00,0.00,VWS V14.00,2013-04-16 07:35:00,
2013-04-16 02:40:00,68.5,62.8,29.44,SE,132,9.0,15.0,82,0.00,,---,0.00,0.00,VWS V14.00,2013-04-16 07:40:00,
2013-04-16 02:45:00,68.3,62.9,29.43,SE,128,9.0,16.0,83,0.00,,---,0.00,0.00,VWS V14.00,2013-04-16 07:45:00,
2013-04-16 02:50:00,68.1,62.8,29.43,SE,145,4.0,19.0,83,0.00,,---,0.00,0.00,VWS V14.00,2013-04-16 07:50:00,
2013-04-16 02:55:00,67.9,62.9,29.43,ESE,122,5.0,17.0,84,0.00,,---,0.00,0.00,VWS V14.00,2013-04-16 07:55:00,
2013-04-16 03:00:00,67.7,62.7,29.44,SE,140,10.0,17.0,84,0.00,,---,0.00,0.00,VWS V14.00,2013-04-16 08:00:00,
2013-04-16 03:05:00,67.6,62.6,29.44,ESE,122,8.0,15.0,84,0.00,,---,0.00,0.00,VWS V14.00,2013-04-16 08:05:00,
2013-04-16 03:10:00,67.4,62.7,29.44,SE,143,13.0,18.0,85,0.00,,---,0.00,0.00,VWS V14.00,2013-04-16 08:10:00,
2013-04-16 03:15:00,67.3,62.6,29.44,SE,125,4.0,14.0,85,0.00,,---,0.00,0.00,VWS V14.00,2013-04-16 08:15:00,
2013-04-16 03:20:00,67.1,62.8,29.44,SE,140,8.0,17.0,86,0.00,,---,0.00,0.00,VWS V14.00,2013-04-16 08:20:00,
2013-04-16 03:25:00,67.0,62.7,29.44,ESE,114,8.0,17.0,86,0.00,,---,0.00,0.00,VWS V14.00,2013-04-16 08:25:00,
2013-04-16 03:30:00,66.9,62.6,29.44,SE,138,6.0,17.0,86,0.00,,---,0.00,0.00,VWS V14.00,2013-04-16 08:30:00,
2013-04-16 03:35:00,66.8,62.5,29.44,SE,137,9.0,15.0,86,0.00,,---,0.00,0.00,VWS V14.00,2013-04-16 08:35:00,
2013-04-16 03:40:00,66.8,62.5,29.45,ESE,120,8.0,15.0,86,0.00,,---,0.00,0.00,VWS V14.00,2013-04-16 08:40:00,
2013-04-16 03:45:00,66.8,62.5,29.45,ESE,118,4.0,7.0,86,0.00,,---,0.00,0.00,VWS V14.00,2013-04-16 08:45:00,
2013-04-16 03:50:00,66.8,62.5,29.45,SE,128,2.0,13.0,86,0.00,,---,0.00,0.00,VWS V14.00,2013-04-16 08:50:00,
2013-04-16 03:55:00,66.8,62.5,29.45,ESE,119,4.0,7.0,86,0.00,,---,0.00,0.00,VWS V14.00,2013-04-16 08:55:00,
2013-04-16 04:00:00,66.9,62.6,29.45,East,101,6.0,9.0,86,0.00,,---,0.00,0.00,VWS V14.00,2013-04-16 09:00:00,
2013-04-16 04:05:00,67.0,62.7,29.45,ESE,107,5.0,11.0,86,0.00,,---,0.00,0.00,VWS V14.00,2013-04-16 09:05:00,
2013-04-16 04:10:00,67.1,62.8,29.46,ESE,106,6.0,11.0,86,0.00,,---,0.00,0.00,VWS V14.00,2013-04-16 09:10:00,
2013-04-16 04:15:00,67.1,62.8,29.46,SE,131,7.0,13.0,86,0.00,,---,0.00,0.00,VWS V14.00,2013-04-16 09:15:00,
2013-04-16 04:20:00,67.0,62.3,29.46,SE,132,8.0,13.0,85,0.00,,---,0.00,0.00,VWS V14.00,2013-04-16 09:20:00,
2013-04-16 04:25:00,67.0,62.3,29.46,SSE,148,6.0,11.0,85,0.00,,---,0.00,0.00,VWS V14.00,2013-04-16 09:25:00,
2013-04-16 04:30:00,67.0,62.3,29.46,SE,130,6.0,12.0,85,0.00,,---,0.00,0.00,VWS V14.00,2013-04-16 09:30:00,
2013-04-16 04:35:00,67.0,62.3,29.46,SE,128,4.0,12.0,85,0.00,,---,0.00,0.00,VWS V14.00,2013-04-16 09:35:00,
2013-04-16 04:40:00,67.0,62.3,29.47,SE,146,6.0,12.0,85,0.00,,---,0.00,0.00,VWS V14.00,2013-04-16 09:40:00,
2013-04-16 04:45:00,67.0,62.3,29.47,SE,141,4.0,7.0,85,0.00,,---,0.00,0.00,VWS V14.00,2013-04-16 09:45:00,
2013-04-16 04:50:00,66.9,62.2,29.47,SE,140,4.0,7.0,85,0.00,,---,0.00,0.00,VWS V14.00,2013-04-16 09:50:00,
2013-04-16 04:55:00,66.8,62.2,29.47,SE,130,5.0,7.0,85,0.00,,---,0.00,0.00,VWS V14.00,2013-04-16 09:55:00,
2013-04-16 05:00:00,66.8,62.2,29.47,SE,133,4.0,9.0,85,0.00,,---,0.00,0.00,VWS V14.00,2013-04-16 10:00:00,
2013-04-16 05:05:00,66.7,62.0,29.47,SE,141,4.0,6.0,85,0.00,,---,0.00,0.00,VWS V14.00,2013-04-16 10:05:00,
2013-04-16 05:10:00,66.7,62.0,29.47,SE,139,4.0,9.0,85,0.00,,---,0.00,0.00,VWS V14.00,2013-04-16 10:10:00,
2013-04-16 05:15:00,66.6,62.0,29.48,SE,142,0.0,7.0,85,0.00,,---,0.00,0.00,VWS V14.00,2013-04-16 10:15:00,
2013-04-16 05:20:00,66.6,62.0,29.48,SE,142,2.0,8.0,85,0.00,,---,0.00,0.00,VWS V14.00,2013-04-16 10:20:00,
2013-04-16 05:25:00,66.6,62.0,29.48,SE,142,0.0,7.0,85,0.00,,---,0.00,0.00,VWS V14.00,2013-04-16 10:25:00,
2013-04-16 05:30:00,66.5,61.9,29.48,SE,142,0.0,7.0,85,0.00,,---,0.00,0.00,VWS V14.00,2013-04-16 10:30:00,
2013-04-16 05:35:00,66.4,61.8,29.48,SE,142,0.0,6.0,85,0.00,,---,0.00,0.00,VWS V14.00,2013-04-16 10:35:00,
2013-04-16 05:40:00,66.3,61.7,29.48,SE,142,4.0,6.0,85,0.00,,---,0.00,0.00,VWS V14.00,2013-04-16 10:40:00,
2013-04-16 05:45:00,66.2,61.6,29.48,SE,142,5.0,6.0,85,0.00,,---,0.00,0.00,VWS V14.00,2013-04-16 10:45:00,
2013-04-16 05:50:00,66.1,61.5,29.48,SE,142,7.0,7.0,85,0.00,,---,0.00,0.00,VWS V14.00,2013-04-16 10:50:00,
2013-04-16 05:55:00,66.1,61.5,29.49,SE,140,5.0,6.0,85,0.00,,---,0.00,0.00,VWS V14.00,2013-04-16 10:55:00,
2013-04-16 06:00:00,66.1,61.5,29.49,SE,140,4.0,6.0,85,0.00,,---,0.00,0.00,VWS V14.00,2013-04-16 11:00:00,
2013-04-16 06:05:00,66.0,61.4,29.49,SE,134,6.0,8.0,85,0.00,,---,0.00,0.00,VWS V14.00,2013-04-16 11:05:00,
2013-04-16 06:10:00,66.0,61.4,29.50,SE,135,6.0,8.0,85,0.00,,---,0.00,0.00,VWS V14.00,2013-04-16 11:10:00,
2013-04-16 06:15:00,66.0,61.4,29.50,SE,132,4.0,6.0,85,0.00,,---,0.00,0.00,VWS V14.00,2013-04-16 11:15:00,
2013-04-16 06:20:00,66.0,61.4,29.50,SE,132,2.0,6.0,85,0.00,,---,0.00,0.00,VWS V14.00,2013-04-16 11:20:00,
2013-04-16 06:25:00,66.0,61.4,29.50,SE,134,4.0,5.0,85,0.00,,---,0.00,0.00,VWS V14.00,2013-04-16 11:25:00,
2013-04-16 06:30:00,66.0,61.4,29.50,SE,134,5.0,7.0,85,0.00,,---,0.00,0.00,VWS V14.00,2013-04-16 11:30:00,
2013-04-16 06:35:00,66.0,61.4,29.50,SE,127,7.0,9.0,85,0.00,,---,0.00,0.00,VWS V14.00,2013-04-16 11:35:00,
2013-04-16 06:40:00,65.9,61.3,29.50,SE,131,5.0,11.0,85,0.00,,---,0.00,0.00,VWS V14.00,2013-04-16 11:40:00,
2013-04-16 06:45:00,65.8,61.2,29.50,SE,130,4.0,9.0,85,0.00,,---,0.00,0.00,VWS V14.00,2013-04-16 11:45:00,
2013-04-16 06:50:00,65.7,61.1,29.50,SE,129,5.0,9.0,85,0.00,,---,0.00,0.00,VWS V14.00,2013-04-16 11:50:00,
2013-04-16 06:55:00,65.6,61.3,29.50,SE,134,4.0,8.0,86,0.00,,---,0.00,0.00,VWS V14.00,2013-04-16 11:55:00,
2013-04-16 07:00:00,65.5,61.2,29.50,SE,134,5.0,8.0,86,0.00,,---,0.00,0.00,VWS V14.00,2013-04-16 12:00:00,
2013-04-16 07:05:00,65.3,61.0,29.50,SE,126,4.0,7.0,86,0.00,,---,0.00,5.00,VWS V14.00,2013-04-16 12:05:00,
2013-04-16 07:10:00,65.2,60.9,29.51,SE,126,6.0,7.0,86,0.00,,---,0.00,7.00,VWS V14.00,2013-04-16 12:10:00,
2013-04-16 07:15:00,65.1,60.8,29.51,SE,126,2.0,8.0,86,0.00,,---,0.00,11.00,VWS V14.00,2013-04-16 12:15:00,
2013-04-16 07:20:00,65.0,60.7,29.51,SE,127,2.0,9.0,86,0.00,,---,0.00,14.00,VWS V14.00,2013-04-16 12:20:00,
2013-04-16 07:25:00,64.9,60.9,29.51,SE,126,1.0,6.0,87,0.00,,---,0.00,18.00,VWS V14.00,2013-04-16 12:25:00,
2013-04-16 07:30:00,64.9,60.9,29.51,SE,126,2.0,6.0,87,0.00,,---,0.00,18.00,VWS V14.00,2013-04-16 12:30:00,
2013-04-16 07:35:00,64.9,60.9,29.51,SE,126,1.0,6.0,87,0.00,,---,0.00,18.00,VWS V14.00,2013-04-16 12:35:00,
2013-04-16 07:40:00,64.8,60.8,29.51,SE,126,2.0,6.0,87,0.00,,---,0.00,26.00,VWS V14.00,2013-04-16 12:40:00,
2013-04-16 07:45:00,64.7,60.8,29.52,SE,126,6.0,8.0,87,0.00,,---,0.00,33.00,VWS V14.00,2013-04-16 12:45:00,
2013-04-16 07:50:00,64.7,61.1,29.51,SE,126,2.0,8.0,88,0.00,,---,0.00,44.00,VWS V14.00,2013-04-16 12:50:00,
2013-04-16 07:55:00,64.8,61.2,29.51,SE,126,2.0,8.0,88,0.00,,---,0.00,63.00,VWS V14.00,2013-04-16 12:55:00,
2013-04-16 08:00:00,64.9,61.3,29.52,SE,127,5.0,9.0,88,0.00,,---,0.00,88.00,VWS V14.00,2013-04-16 13:00:00,
2013-04-16 08:05:00,65.0,61.4,29.52,SE,125,2.0,7.0,88,0.00,,---,0.00,86.00,VWS V14.00,2013-04-16 13:05:00,
2013-04-16 08:10:00,65.3,61.7,29.51,SE,125,5.0,7.0,88,0.00,,---,0.00,90.00,VWS V14.00,2013-04-16 13:10:00,
2013-04-16 08:15:00,65.5,61.5,29.52,SE,126,5.0,9.0,87,0.00,,---,0.00,81.00,VWS V14.00,2013-04-16 13:15:00,
2013-04-16 08:20:00,65.7,61.7,29.52,ESE,123,4.0,9.0,87,0.00,,---,0.00,58.00,VWS V14.00,2013-04-16 13:20:00,
2013-04-16 08:24:00,65.9,61.9,29.52,ESE,123,5.0,6.0,87,0.00,,---,0.00,162.00,VWS V14.00,2013-04-16 13:24:00,
2013-04-16 08:29:00,66.1,62.1,29.52,SE,126,2.0,9.0,87,0.00,,---,0.00,134.00,VWS V14.00,2013-04-16 13:29:00,
2013-04-16 08:34:00,66.4,62.4,29.53,SE,125,5.0,6.0,87,0.00,,---,0.00,158.00,VWS V14.00,2013-04-16 13:34:00,
2013-04-16 08:40:00,66.7,62.4,29.53,SE,125,2.0,6.0,86,0.00,,---,0.00,236.00,VWS V14.00,2013-04-16 13:40:00,
2013-04-16 08:45:00,67.1,62.8,29.53,SE,124,4.0,7.0,86,0.00,,---,0.00,255.00,VWS V14.00,2013-04-16 13:45:00,
2013-04-16 08:50:00,67.6,62.9,29.53,SE,125,5.0,9.0,85,0.00,,---,0.00,241.00,VWS V14.00,2013-04-16 13:50:00,
2013-04-16 08:55:00,68.0,63.0,29.53,ESE,123,4.0,7.0,84,0.00,,---,0.00,118.00,VWS V14.00,2013-04-16 13:55:00,
2013-04-16 09:00:00,68.3,62.9,29.53,ESE,123,2.0,8.0,83,0.00,,---,0.00,325.00,VWS V14.00,2013-04-16 14:00:00,
2013-04-16 09:05:00,68.7,63.0,29.53,ESE,122,5.0,8.0,82,0.00,,---,0.00,343.00,VWS V14.00,2013-04-16 14:05:00,
2013-04-16 09:10:00,69.3,63.2,29.53,ESE,122,8.0,8.0,81,0.00,,---,0.00,348.00,VWS V14.00,2013-04-16 14:10:00,
2013-04-16 09:15:00,69.9,63.1,29.54,ESE,122,4.0,8.0,79,0.00,,---,0.00,373.00,VWS V14.00,2013-04-16 14:15:00,
2013-04-16 09:20:00,70.4,63.6,29.54,ESE,121,4.0,8.0,79,0.00,,---,0.00,404.00,VWS V14.00,2013-04-16 14:20:00,
2013-04-16 09:25:00,71.0,63.4,29.54,SE,143,8.0,10.0,77,0.00,,---,0.00,424.00,VWS V14.00,2013-04-16 14:25:00,
2013-04-16 09:30:00,71.5,63.2,29.54,SE,136,7.0,11.0,75,0.00,,---,0.00,464.00,VWS V14.00,2013-04-16 14:30:00,
2013-04-16 09:35:00,71.9,63.5,29.54,SE,135,7.0,12.0,75,0.00,,---,0.00,454.00,VWS V14.00,2013-04-16 14:35:00,
2013-04-16 09:40:00,72.4,63.3,29.54,SE,140,6.0,12.0,73,0.00,,---,0.00,443.00,VWS V14.00,2013-04-16 14:40:00,
2013-04-16 09:45:00,72.8,62.9,29.55,SE,138,6.0,15.0,71,0.00,,---,0.00,276.00,VWS V14.00,2013-04-16 14:45:00,
2013-04-16 09:50:00,73.0,63.0,29.55,SE,136,7.0,15.0,71,0.00,,---,0.00,422.00,VWS V14.00,2013-04-16 14:50:00,
2013-04-16 09:55:00,73.3,63.3,29.54,SE,137,4.0,11.0,71,0.00,,---,0.00,438.00,VWS V14.00,2013-04-16 14:55:00,
2013-04-16 10:00:00,73.5,62.7,29.55,SE,126,7.0,17.0,69,0.00,,---,0.00,443.00,VWS V14.00,2013-04-16 15:00:00,
2013-04-16 10:05:00,73.8,63.0,29.55,SSE,162,11.0,14.0,69,0.00,,---,0.00,652.00,VWS V14.00,2013-04-16 15:05:00,
2013-04-16 10:10:00,74.2,63.0,29.54,SE,144,5.0,14.0,68,0.00,,---,0.00,267.00,VWS V14.00,2013-04-16 15:10:00,
2013-04-16 10:15:00,73.9,62.7,29.54,SE,142,5.0,9.0,68,0.00,,---,0.00,199.00,VWS V14.00,2013-04-16 15:15:00,
2013-04-16 10:20:00,73.5,62.3,29.53,SE,125,7.0,13.0,68,0.00,,---,0.00,193.00,VWS V14.00,2013-04-16 15:20:00,
2013-04-16 10:25:00,72.8,62.5,29.55,SE,138,4.0,17.0,70,0.00,,---,0.00,206.00,VWS V14.00,2013-04-16 15:25:00,
2013-04-16 10:30:00,72.5,63.0,29.56,SSE,147,1.0,17.0,72,0.00,,---,0.00,207.00,VWS V14.00,2013-04-16 15:30:00,
2013-04-16 10:35:00,72.4,62.9,29.55,SSE,147,8.0,8.0,72,0.00,,---,0.00,232.00,VWS V14.00,2013-04-16 15:35:00,
2013-04-16 10:40:00,72.4,63.3,29.54,SE,134,7.0,15.0,73,0.00,,---,0.00,306.00,VWS V14.00,2013-04-16 15:40:00,
2013-04-16 10:45:00,72.5,63.4,29.54,SSE,155,9.0,12.0,73,0.00,,---,0.00,357.00,VWS V14.00,2013-04-16 15:45:00,
2013-04-16 10:50:00,72.7,63.5,29.55,SSE,148,6.0,12.0,73,0.00,,---,0.00,533.00,VWS V14.00,2013-04-16 15:50:00,
2013-04-16 10:55:00,73.2,64.4,29.55,SE,143,7.0,9.0,74,0.00,,---,0.00,533.00,VWS V14.00,2013-04-16 15:55:00,
2013-04-16 11:00:00,73.8,64.2,29.55,SE,126,4.0,12.0,72,0.00,,---,0.00,357.00,VWS V14.00,2013-04-16 16:00:00,
2013-04-16 11:05:00,74.3,64.7,29.54,SE,140,14.0,17.0,72,0.00,,---,0.00,436.00,VWS V14.00,2013-04-16 16:05:00,
2013-04-16 11:10:00,74.7,64.3,29.54,SE,144,7.0,17.0,70,0.00,,---,0.00,285.00,VWS V14.00,2013-04-16 16:10:00,
2013-04-16 11:15:00,74.8,64.4,29.54,ESE,120,6.0,13.0,70,0.00,,---,0.00,265.00,VWS V14.00,2013-04-16 16:15:00,
2013-04-16 11:20:00,74.8,64.4,29.55,SE,129,7.0,14.0,70,0.00,,---,0.00,272.00,VWS V14.00,2013-04-16 16:20:00,
2013-04-16 11:25:00,74.7,64.7,29.54,SSE,165,8.0,15.0,71,0.00,,---,0.00,229.00,VWS V14.00,2013-04-16 16:25:00,
2013-04-16 11:30:00,74.7,64.7,29.54,SE,130,6.0,15.0,71,0.00,,---,0.00,230.00,VWS V14.00,2013-04-16 16:30:00,
2013-04-16 11:35:00,74.8,64.8,29.55,SE,137,8.0,11.0,71,0.00,,---,0.00,287.00,VWS V14.00,2013-04-16 16:35:00,
2013-04-16 11:40:00,75.0,65.4,29.54,ESE,121,6.0,13.0,72,0.00,,---,0.00,250.00,VWS V14.00,2013-04-16 16:40:00,
2013-04-16 11:45:00,75.2,65.6,29.54,SE,136,6.0,12.0,72,0.00,,---,0.00,316.00,VWS V14.00,2013-04-16 16:45:00,
2013-04-16 11:50:00,75.8,66.1,29.53,SE,141,7.0,12.0,72,0.00,,---,0.00,670.00,VWS V14.00,2013-04-16 16:50:00,
2013-04-16 11:55:00,76.8,66.7,29.54,SE,139,7.0,10.0,71,0.00,,---,0.00,1027.00,VWS V14.00,2013-04-16 16:55:00,
2013-04-16 12:00:00,78.2,67.2,29.54,ESE,123,9.0,14.0,69,0.00,,---,0.00,844.00,VWS V14.00,2013-04-16 17:00:00,
2013-04-16 12:05:00,79.2,66.4,29.53,SSE,152,6.0,15.0,65,0.00,,---,0.00,896.00,VWS V14.00,2013-04-16 17:05:00,
2013-04-16 12:10:00,79.8,67.0,29.54,SSE,157,11.0,15.0,65,0.00,,---,0.00,954.00,VWS V14.00,2013-04-16 17:10:00,
2013-04-16 12:15:00,80.5,66.8,29.54,SSE,167,7.0,12.0,63,0.00,,---,0.00,867.00,VWS V14.00,2013-04-16 17:15:00,
2013-04-16 12:20:00,80.8,66.6,29.53,SE,146,9.0,15.0,62,0.00,,---,0.00,916.00,VWS V14.00,2013-04-16 17:20:00,
2013-04-16 12:25:00,81.3,66.6,29.53,SSE,158,8.0,17.0,61,0.00,,---,0.00,918.00,VWS V14.00,2013-04-16 17:25:00,
2013-04-16 12:30:00,81.3,66.6,29.53,SSE,149,0.0,17.0,61,0.00,,---,0.00,940.00,VWS V14.00,2013-04-16 17:30:00,
2013-04-16 12:35:00,81.6,66.4,29.53,SSE,147,7.0,11.0,60,0.00,,---,0.00,944.00,VWS V14.00,2013-04-16 17:35:00,
2013-04-16 12:40:00,81.9,66.7,29.53,SSE,151,2.0,11.0,60,0.00,,---,0.00,870.00,VWS V14.00,2013-04-16 17:40:00,
2013-04-16 12:45:00,82.4,67.1,29.53,SSE,152,7.0,11.0,60,0.00,,---,0.00,914.00,VWS V14.00,2013-04-16 17:45:00,
2013-04-16 12:50:00,82.9,66.6,29.52,SE,129,6.0,13.0,58,0.00,,---,0.00,911.00,VWS V14.00,2013-04-16 17:50:00,
2013-04-16 12:55:00,83.1,66.3,29.52,ESE,117,8.0,12.0,57,0.00,,---,0.00,923.00,VWS V14.00,2013-04-16 17:55:00,
2013-04-16 13:00:00,83.5,66.7,29.52,SE,141,9.0,17.0,57,0.00,,---,0.00,919.00,VWS V14.00,2013-04-16 18:00:00,
2013-04-16 13:05:00,83.8,67.5,29.51,SSE,157,5.0,11.0,58,0.00,,---,0.00,919.00,VWS V14.00,2013-04-16 18:05:00,
2013-04-16 13:10:00,84.6,67.2,29.51,SE,142,6.0,11.0,56,0.00,,---,0.00,925.00,VWS V14.00,2013-04-16 18:10:00,
2013-04-16 13:15:00,85.1,67.1,29.51,SE,136,7.0,14.0,55,0.00,,---,0.00,923.00,VWS V14.00,2013-04-16 18:15:00,
2013-04-16 13:20:00,85.3,66.8,29.50,SE,138,8.0,15.0,54,0.00,,---,0.00,926.00,VWS V14.00,2013-04-16 18:20:00,
2013-04-16 13:25:00,85.2,66.2,29.50,SE,134,11.0,14.0,53,0.00,,---,0.00,925.00,VWS V14.00,2013-04-16 18:25:00,
2013-04-16 13:30:00,85.3,67.3,29.50,SSE,148,9.0,16.0,55,0.00,,---,0.00,939.00,VWS V14.00,2013-04-16 18:30:00,
2013-04-16 13:35:00,85.9,66.8,29.49,SSE,155,7.0,10.0,53,0.00,,---,0.00,889.00,VWS V14.00,2013-04-16 18:35:00,
2013-04-16 13:40:00,86.4,67.3,29.49,SSE,160,10.0,17.0,53,0.00,,---,0.00,981.00,VWS V14.00,2013-04-16 18:40:00,
2013-04-16 13:45:00,86.5,67.3,29.49,SE,146,5.0,15.0,53,0.00,,---,0.00,958.00,VWS V14.00,2013-04-16 18:45:00,
2013-04-16 13:50:00,86.6,66.9,29.49,SE,127,13.0,15.0,52,0.00,,---,0.00,951.00,VWS V14.00,2013-04-16 18:50:00,
2013-04-16 13:55:00,86.5,66.8,29.49,ESE,103,8.0,17.0,52,0.00,,---,0.00,960.00,VWS V14.00,2013-04-16 18:55:00,
2013-04-16 14:00:00,86.7,67.0,29.49,SSE,150,12.0,17.0,52,0.00,,---,0.00,930.00,VWS V14.00,2013-04-16 19:00:00,
2013-04-16 14:05:00,86.8,67.1,29.49,SSE,155,11.0,17.0,52,0.00,,---,0.00,849.00,VWS V14.00,2013-04-16 19:05:00,
2013-04-16 14:10:00,86.6,66.9,29.48,SSE,147,11.0,20.0,52,0.00,,---,0.00,979.00,VWS V14.00,2013-04-16 19:10:00,
2013-04-16 14:15:00,86.8,67.1,29.47,ESE,111,8.0,16.0,52,0.00,,---,0.00,1023.00,VWS V14.00,2013-04-16 19:15:00,
2013-04-16 14:20:00,87.1,67.4,29.48,SE,144,9.0,16.0,52,0.00,,---,0.00,1007.00,VWS V14.00,2013-04-16 19:20:00,
2013-04-16 14:25:00,87.5,67.2,29.47,ESE,105,9.0,14.0,51,0.00,,---,0.00,960.00,VWS V14.00,2013-04-16 19:25:00,
2013-04-16 14:30:00,87.6,66.7,29.47,SE,132,8.0,17.0,50,0.00,,---,0.00,967.00,VWS V14.00,2013-04-16 19:30:00,
2013-04-16 14:35:00,87.5,67.2,29.47,ESE,111,7.0,13.0,51,0.00,,---,0.00,946.00,VWS V14.00,2013-04-16 19:35:00,
2013-04-16 14:40:00,87.8,66.3,29.47,SE,126,9.0,18.0,49,0.00,,---,0.00,918.00,VWS V14.00,2013-04-16 19:40:00,
2013-04-16 14:45:00,88.0,66.5,29.46,SE,138,8.0,13.0,49,0.00,,---,0.00,916.00,VWS V14.00,2013-04-16 19:45:00,
2013-04-16 14:50:00,88.2,64.8,29.46,SE,136,8.0,18.0,46,0.00,,---,0.00,916.00,VWS V14.00,2013-04-16 19:50:00,
2013-04-16 14:55:00,88.4,65.0,29.46,SE,133,9.0,20.0,46,0.00,,---,0.00,904.00,VWS V14.00,2013-04-16 19:55:00,
2013-04-16 15:00:00,88.4,65.0,29.46,SE,136,7.0,22.0,46,0.00,,---,0.00,895.00,VWS V14.00,2013-04-16 20:00:00,
2013-04-16 15:05:00,88.3,64.9,29.45,SE,132,18.0,20.0,46,0.00,,---,0.00,898.00,VWS V14.00,2013-04-16 20:05:00,
2013-04-16 15:10:00,88.5,64.5,29.45,SE,143,10.0,20.0,45,0.00,,---,0.00,879.00,VWS V14.00,2013-04-16 20:10:00,
2013-04-16 15:15:00,88.7,64.0,29.45,SE,143,10.0,17.0,44,0.00,,---,0.00,868.00,VWS V14.00,2013-04-16 20:15:00,
2013-04-16 15:20:00,89.0,65.6,29.45,SE,144,7.0,17.0,46,0.00,,---,0.00,863.00,VWS V14.00,2013-04-16 20:20:00,
2013-04-16 15:25:00,89.3,63.9,29.45,SE,146,6.0,18.0,43,0.00,,---,0.00,853.00,VWS V14.00,2013-04-16 20:25:00,
2013-04-16 15:30:00,89.5,65.4,29.45,ESE,103,12.0,18.0,45,0.00,,---,0.00,823.00,VWS V14.00,2013-04-16 20:30:00,
2013-04-16 15:35:00,89.1,65.6,29.45,East,97,7.0,15.0,46,0.00,,---,0.00,833.00,VWS V14.00,2013-04-16 20:35:00,
2013-04-16 15:40:00,89.0,64.9,29.45,SSE,165,8.0,20.0,45,0.00,,---,0.00,752.00,VWS V14.00,2013-04-16 20:40:00,
2013-04-16 15:45:00,88.7,64.0,29.45,SE,132,17.0,21.0,44,0.00,,---,0.00,821.00,VWS V14.00,2013-04-16 20:45:00,
2013-04-16 15:50:00,88.5,63.8,29.45,SE,124,5.0,21.0,44,0.00,,---,0.00,844.00,VWS V14.00,2013-04-16 20:50:00,
2013-04-16 15:55:00,88.4,64.4,29.45,SE,131,12.0,19.0,45,0.00,,---,0.00,798.00,VWS V14.00,2013-04-16 20:55:00,
2013-04-16 16:00:00,88.3,64.9,29.45,SSE,159,8.0,19.0,46,0.00,,---,0.00,696.00,VWS V14.00,2013-04-16 21:00:00,
2013-04-16 16:05:00,88.4,65.0,29.45,SE,130,7.0,21.0,46,0.00,,---,0.00,780.00,VWS V14.00,2013-04-16 21:05:00,
2013-04-16 16:10:00,88.4,65.0,29.44,SE,126,8.0,21.0,46,0.00,,---,0.00,754.00,VWS V14.00,2013-04-16 21:10:00,
2013-04-16 16:15:00,88.5,64.5,29.44,SE,146,12.0,17.0,45,0.00,,---,0.00,710.00,VWS V14.00,2013-04-16 21:15:00,
2013-04-16 16:20:00,88.5,65.1,29.44,SE,142,7.0,17.0,46,0.00,,---,0.00,689.00,VWS V14.00,2013-04-16 21:20:00,
2013-04-16 16:25:00,88.4,65.0,29.44,East,95,18.0,20.0,46,0.00,,---,0.00,712.00,VWS V14.00,2013-04-16 21:25:00,
2013-04-16 16:30:00,88.6,65.8,29.44,SE,130,13.0,21.0,47,0.00,,---,0.00,700.00,VWS V14.00,2013-04-16 21:30:00,
2013-04-16 16:35:00,88.4,65.6,29.44,SE,142,7.0,16.0,47,0.00,,---,0.00,684.00,VWS V14.00,2013-04-16 21:35:00,
2013-04-16 16:40:00,88.3,65.5,29.44,SSE,148,17.0,24.0,47,0.00,,---,0.00,670.00,VWS V14.00,2013-04-16 21:40:00,
2013-04-16 16:45:00,88.2,65.4,29.43,SSE,148,13.0,23.0,47,0.00,,---,0.00,656.00,VWS V14.00,2013-04-16 21:45:00,
2013-04-16 16:50:00,88.2,66.1,29.43,SE,143,14.0,23.0,48,0.00,,---,0.00,640.00,VWS V14.00,2013-04-16 21:50:00,
2013-04-16 16:55:00,88.3,66.7,29.43,South,171,15.0,19.0,49,0.00,,---,0.00,633.00,VWS V14.00,2013-04-16 21:55:00,
2013-04-16 17:00:00,88.5,66.9,29.43,SE,146,10.0,21.0,49,0.00,,---,0.00,598.00,VWS V14.00,2013-04-16 22:00:00,
2013-04-16 17:05:00,88.4,66.8,29.43,SE,126,15.0,20.0,49,0.00,,---,0.00,587.00,VWS V14.00,2013-04-16 22:05:00,
2013-04-16 17:09:00,87.9,65.2,29.43,ESE,104,11.0,26.0,47,0.00,,---,0.00,577.00,VWS V14.00,2013-04-16 22:09:00,
2013-04-16 17:14:00,87.5,66.0,29.44,SSE,148,13.0,26.0,49,0.00,,---,0.00,552.00,VWS V14.00,2013-04-16 22:14:00,
2013-04-16 17:19:00,87.3,65.8,29.44,SSE,148,9.0,26.0,49,0.00,,---,0.00,548.00,VWS V14.00,2013-04-16 22:19:00,
2013-04-16 17:24:00,87.3,65.8,29.44,ESE,111,8.0,22.0,49,0.00,,---,0.00,519.00,VWS V14.00,2013-04-16 22:24:00,
2013-04-16 17:29:00,87.2,65.7,29.44,SE,138,6.0,22.0,49,0.00,,---,0.00,504.00,VWS V14.00,2013-04-16 22:29:00,
2013-04-16 17:34:00,87.3,65.8,29.44,SSE,150,16.0,16.0,49,0.00,,---,0.00,490.00,VWS V14.00,2013-04-16 22:34:00,
2013-04-16 17:39:00,87.0,65.6,29.44,ESE,121,11.0,22.0,49,0.00,,---,0.00,473.00,VWS V14.00,2013-04-16 22:39:00,
2013-04-16 17:44:00,86.6,65.8,29.45,SE,134,12.0,18.0,50,0.00,,---,0.00,454.00,VWS V14.00,2013-04-16 22:44:00,
2013-04-16 17:49:00,86.4,65.6,29.45,SE,141,11.0,20.0,50,0.00,,---,0.00,439.00,VWS V14.00,2013-04-16 22:49:00,
2013-04-16 17:54:00,86.0,65.8,29.44,SSE,156,14.0,17.0,51,0.00,,---,0.00,415.00,VWS V14.00,2013-04-16 22:54:00,
2013-04-16 17:59:00,85.9,65.7,29.44,ESE,123,12.0,21.0,51,0.00,,---,0.00,392.00,VWS V14.00,2013-04-16 22:59:00,
2013-04-16 18:04:00,85.4,66.3,29.44,SE,129,12.0,21.0,53,0.00,,---,0.00,376.00,VWS V14.00,2013-04-16 23:04:00,
2013-04-16 18:09:00,85.1,66.1,29.44,SE,140,11.0,21.0,53,0.00,,---,0.00,357.00,VWS V14.00,2013-04-16 23:09:00,
2013-04-16 18:14:00,84.9,65.9,29.45,SE,132,8.0,23.0,53,0.00,,---,0.00,327.00,VWS V14.00,2013-04-16 23:14:00,
2013-04-16 18:19:00,84.8,65.8,29.44,SE,128,7.0,23.0,53,0.00,,---,0.00,318.00,VWS V14.00,2013-04-16 23:19:00,
2013-04-16 18:24:00,84.7,66.2,29.45,SSE,148,9.0,16.0,54,0.00,,---,0.00,297.00,VWS V14.00,2013-04-16 23:24:00,
2013-04-16 18:29:00,84.7,66.2,29.45,SSE,150,11.0,19.0,54,0.00,,---,0.00,288.00,VWS V14.00,2013-04-16 23:29:00,
2013-04-16 18:34:00,84.6,66.1,29.45,SE,135,9.0,17.0,54,0.00,,---,0.00,267.00,VWS V14.00,2013-04-16 23:34:00,
2013-04-16 18:39:00,84.4,65.9,29.45,SE,146,13.0,24.0,54,0.00,,---,0.00,121.00,VWS V14.00,2013-04-16 23:39:00,
2013-04-16 18:44:00,84.1,65.7,29.46,SE,130,9.0,18.0,54,0.00,,---,0.00,236.00,VWS V14.00,2013-04-16 23:44:00,
2013-04-16 18:49:00,83.9,65.5,29.46,SE,124,8.0,18.0,54,0.00,,---,0.00,209.00,VWS V14.00,2013-04-16 23:49:00,
2013-04-16 18:54:00,83.7,65.8,29.46,SSE,160,8.0,13.0,55,0.00,,---,0.00,190.00,VWS V14.00,2013-04-16 23:54:00,
2013-04-16 18:59:00,83.7,65.8,29.46,SSE,148,4.0,13.0,55,0.00,,---,0.00,172.00,VWS V14.00,2013-04-16 23:59:00,
2013-04-16 19:04:00,83.4,66.1,29.45,SE,138,8.0,20.0,56,0.00,,---,0.00,144.00,VWS V14.00,2013-04-17 00:04:00,
2013-04-16 19:09:00,83.1,65.8,29.46,SSE,156,10.0,20.0,56,0.00,,---,0.00,130.00,VWS V14.00,2013-04-17 00:09:00,
2013-04-16 19:14:00,82.9,66.1,29.46,SE,136,8.0,13.0,57,0.00,,---,0.00,109.00,VWS V14.00,2013-04-17 00:14:00,
2013-04-16 19:19:00,82.7,66.4,29.46,SE,133,13.0,13.0,58,0.00,,---,0.00,86.00,VWS V14.00,2013-04-17 00:19:00,
2013-04-16 19:24:00,82.4,66.2,29.46,SSE,153,6.0,13.0,58,0.00,,---,0.00,70.00,VWS V14.00,2013-04-17 00:24:00,
2013-04-16 19:29:00,82.2,66.5,29.47,ESE,117,9.0,15.0,59,0.00,,---,0.00,58.00,VWS V14.00,2013-04-17 00:29:00,
2013-04-16 19:34:00,81.8,66.6,29.47,ESE,123,6.0,12.0,60,0.00,,---,0.00,46.00,VWS V14.00,2013-04-17 00:34:00,
2013-04-16 19:39:00,81.5,66.3,29.47,SE,138,6.0,18.0,60,0.00,,---,0.00,33.00,VWS V14.00,2013-04-17 00:39:00,
2013-04-16 19:44:00,81.2,66.5,29.47,SE,128,9.0,13.0,61,0.00,,---,0.00,26.00,VWS V14.00,2013-04-17 00:44:00,
2013-04-16 19:49:00,80.9,66.7,29.47,SE,131,11.0,19.0,62,0.00,,---,0.00,18.00,VWS V14.00,2013-04-17 00:49:00,
2013-04-16 19:54:00,80.6,66.4,29.47,SE,139,10.0,12.0,62,0.00,,---,0.00,9.00,VWS V14.00,2013-04-17 00:54:00,
2013-04-16 19:59:00,80.3,66.6,29.47,SE,130,8.0,17.0,63,0.00,,---,0.00,5.00,VWS V14.00,2013-04-17 00:59:00,
2013-04-16 20:04:00,80.0,66.3,29.47,ESE,122,6.0,8.0,63,0.00,,---,0.00,0.00,VWS V14.00,2013-04-17 01:04:00,
2013-04-16 20:09:00,79.6,66.4,29.47,SE,132,6.0,12.0,64,0.00,,---,0.00,0.00,VWS V14.00,2013-04-17 01:09:00,
2013-04-16 20:14:00,79.2,66.4,29.48,ESE,118,7.0,13.0,65,0.00,,---,0.00,0.00,VWS V14.00,2013-04-17 01:14:00,
2013-04-16 20:19:00,78.9,66.6,29.48,ESE,117,8.0,14.0,66,0.00,,---,0.00,0.00,VWS V14.00,2013-04-17 01:19:00,
2013-04-16 20:24:00,78.7,66.8,29.48,SE,132,13.0,13.0,67,0.00,,---,0.00,0.00,VWS V14.00,2013-04-17 01:24:00,
2013-04-16 20:29:00,78.5,66.6,29.48,SE,124,7.0,13.0,67,0.00,,---,0.00,0.00,VWS V14.00,2013-04-17 01:29:00,
2013-04-16 20:34:00,78.3,66.9,29.49,SE,130,5.0,15.0,68,0.00,,---,0.00,0.00,VWS V14.00,2013-04-17 01:34:00,
2013-04-16 20:39:00,78.1,66.7,29.49,ESE,123,13.0,15.0,68,0.00,,---,0.00,0.00,VWS V14.00,2013-04-17 01:39:00,
2013-04-16 20:44:00,77.8,66.8,29.49,SE,138,6.0,14.0,69,0.00,,---,0.00,0.00,VWS V14.00,2013-04-17 01:44:00,
2013-04-16 20:49:00,77.6,67.1,29.50,SE,136,9.0,14.0,70,0.00,,---,0.00,0.00,VWS V14.00,2013-04-17 01:49:00,
2013-04-16 20:54:00,77.4,66.9,29.49,SE,128,13.0,13.0,70,0.00,,---,0.00,0.00,VWS V14.00,2013-04-17 01:54:00,
2013-04-16 20:59:00,77.1,66.6,29.49,SE,135,6.0,13.0,70,0.00,,---,0.00,0.00,VWS V14.00,2013-04-17 01:59:00,
2013-04-16 21:04:00,76.8,66.7,29.49,ESE,119,7.0,12.0,71,0.00,,---,0.00,0.00,VWS V14.00,2013-04-17 02:04:00,
2013-04-16 21:09:00,76.5,66.4,29.49,SE,126,6.0,15.0,71,0.00,,---,0.00,0.00,VWS V14.00,2013-04-17 02:09:00,
2013-04-16 21:14:00,76.3,66.6,29.50,ESE,114,9.0,11.0,72,0.00,,---,0.00,0.00,VWS V14.00,2013-04-17 02:14:00,
2013-04-16 21:19:00,76.0,66.3,29.50,SE,126,8.0,14.0,72,0.00,,---,0.00,0.00,VWS V14.00,2013-04-17 02:19:00,
2013-04-16 21:24:00,75.8,66.1,29.50,ESE,109,8.0,9.0,72,0.00,,---,0.00,0.00,VWS V14.00,2013-04-17 02:24:00,
2013-04-16 21:29:00,75.5,66.2,29.50,SE,134,14.0,15.0,73,0.00,,---,0.00,0.00,VWS V14.00,2013-04-17 02:29:00,
2013-04-16 21:34:00,75.2,66.0,29.51,ESE,119,9.0,15.0,73,0.00,,---,0.00,0.00,VWS V14.00,2013-04-17 02:34:00,
2013-04-16 21:39:00,75.0,65.8,29.50,SE,132,7.0,15.0,73,0.00,,---,0.00,0.00,VWS V14.00,2013-04-17 02:39:00,
2013-04-16 21:44:00,74.8,66.0,29.50,ESE,116,11.0,19.0,74,0.00,,---,0.00,0.00,VWS V14.00,2013-04-17 02:44:00,
2013-04-16 21:49:00,74.6,65.8,29.51,East,100,5.0,19.0,74,0.00,,---,0.00,0.00,VWS V14.00,2013-04-17 02:49:00,
2013-04-16 21:54:00,74.4,65.6,29.51,East,89,18.0,20.0,74,0.00,,---,0.00,0.00,VWS V14.00,2013-04-17 02:54:00,
2013-04-16 21:59:00,74.2,65.4,29.52,East,99,7.0,22.0,74,0.00,,---,0.00,0.00,VWS V14.00,2013-04-17 02:59:00,
2013-04-16 22:04:00,74.1,65.3,29.52,SE,140,6.0,11.0,74,0.00,,---,0.00,0.00,VWS V14.00,2013-04-17 03:04:00,
2013-04-16 22:09:00,73.9,65.5,29.53,SE,134,7.0,14.0,75,0.00,,---,0.00,0.00,VWS V14.00,2013-04-17 03:09:00,
2013-04-16 22:14:00,73.7,65.3,29.53,SE,128,8.0,13.0,75,0.00,,---,0.00,0.00,VWS V14.00,2013-04-17 03:14:00,
2013-04-16 22:19:00,73.5,65.5,29.53,ESE,123,6.0,14.0,76,0.00,,---,0.00,0.00,VWS V14.00,2013-04-17 03:19:00,
2013-04-16 22:24:00,73.2,65.2,29.53,ESE,118,4.0,13.0,76,0.00,,---,0.00,0.00,VWS V14.00,2013-04-17 03:24:00,
2013-04-16 22:29:00,73.0,65.4,29.53,ESE,104,12.0,17.0,77,0.00,,---,0.00,0.00,VWS V14.00,2013-04-17 03:29:00,
2013-04-16 22:34:00,72.9,65.3,29.53,SSE,148,4.0,12.0,77,0.00,,---,0.00,0.00,VWS V14.00,2013-04-17 03:34:00,
2013-04-16 22:39:00,72.8,65.6,29.53,ESE,115,5.0,14.0,78,0.00,,---,0.00,0.00,VWS V14.00,2013-04-17 03:39:00,
2013-04-16 22:44:00,72.6,65.3,29.53,SE,138,6.0,13.0,78,0.00,,---,0.00,0.00,VWS V14.00,2013-04-17 03:44:00,
2013-04-16 22:49:00,72.4,65.2,29.54,ESE,113,6.0,13.0,78,0.00,,---,0.00,0.00,VWS V14.00,2013-04-17 03:49:00,
2013-04-16 22:54:00,72.2,65.3,29.53,ESE,115,6.0,9.0,79,0.00,,---,0.00,0.00,VWS V14.00,2013-04-17 03:54:00,
2013-04-16 22:59:00,71.9,65.4,29.53,SE,130,7.0,13.0,80,0.00,,---,0.00,0.00,VWS V14.00,2013-04-17 03:59:00,
2013-04-16 23:00:00,71.9,65.4,29.53,SE,128,9.0,13.0,80,0.00,,---,0.00,0.00,VWS V14.00,2013-04-17 04:00:00,
2013-04-16 23:05:00,71.8,65.7,29.53,SE,139,7.0,13.0,81,0.00,,---,0.00,0.00,VWS V14.00,2013-04-17 04:05:00,
2013-04-16 23:10:00,71.7,65.6,29.54,ESE,118,7.0,13.0,81,0.00,,---,0.00,0.00,VWS V14.00,2013-04-17 04:10:00,
2013-04-16 23:15:00,71.6,65.8,29.54,SE,135,10.0,14.0,82,0.00,,---,0.00,0.00,VWS V14.00,2013-04-17 04:15:00,
2013-04-16 23:20:00,71.7,65.9,29.55,ESE,122,5.0,14.0,82,0.00,,---,0.00,0.00,VWS V14.00,2013-04-17 04:20:00,
2013-04-16 23:25:00,71.8,66.0,29.54,SE,143,7.0,13.0,82,0.00,,---,0.00,0.00,VWS V14.00,2013-04-17 04:25:00,
2013-04-16 23:30:00,71.9,66.1,29.53,SSE,152,7.0,13.0,82,0.00,,---,0.00,0.00,VWS V14.00,2013-04-17 04:30:00,
2013-04-16 23:35:00,72.0,66.6,29.53,ESE,106,5.0,13.0,83,0.00,,---,0.00,0.00,VWS V14.00,2013-04-17 04:35:00,
2013-04-16 23:40:00,72.1,66.7,29.53,SSE,147,4.0,13.0,83,0.00,,---,0.00,0.00,VWS V14.00,2013-04-17 04:40:00,
2013-04-16 23:45:00,72.2,66.8,29.53,ESE,106,5.0,12.0,83,0.00,,---,0.00,0.00,VWS V14.00,2013-04-17 04:45:00,
2013-04-16 23:50:00,72.3,66.8,29.53,SE,136,8.0,13.0,83,0.00,,---,0.00,0.00,VWS V14.00,2013-04-17 04:50:00,
2013-04-16 23:55:00,72.4,66.9,29.55,ESE,118,6.0,9.0,83,0.00,,---,0.00,0.00,VWS V14.00,2013-04-17 04:55:00,